Regional Weather Roundup
Issued by NWS

Home | Current Version | Previous Version | Text Only | Print | Product List | Glossary Off
Versions: 1 2 3 4 5 6 7 8 9 10 11 12 13 14 15 16 17 18 19 20 21 22 23 24 25 26 27 28 29 30 31 32 33 34 35 36 37 38 39 40 41 42 43 44 45 46 47 48 49 50

000
ASUS43 KMKX 290011
RWRWI

WISCONSIN REGIONAL WEATHER ROUNDUP
NATIONAL WEATHER SERVICE MILWAUKEE/SULLIVAN WI
600 PM CST SUN DEC 28 2014

NOTE: "FAIR" INDICATES FEW OR NO CLOUDS BELOW 12,000 FEET WITH NO
SIGNIFICANT WEATHER AND/OR OBSTRUCTIONS TO VISIBILITY.

WIZ001-002-006>008-014>016-023>028-290100-
NORTHWEST WISCONSIN

CITY           SKY/WX    TMP DP  RH WIND       PRES   REMARKS
SUPERIOR ARPT  CLEAR     10  -1  63 NW6       30.31R WCI   0
6HR MIN TEMP:  10; 6HR MAX TEMP:  15;

ASHLAND        CLEAR      4  -1  80 W6        30.27R WCI  -7
6HR MIN TEMP:   3; 6HR MAX TEMP:  18;

HAYWARD        CLEAR      4   0  83 CALM      30.23R
6HR MIN TEMP:   4; 6HR MAX TEMP:  20;

SIREN          CLEAR      4   1  86 CALM      30.27R
6HR MIN TEMP:   4; 6HR MAX TEMP:  21;

CUMBERLAND     CLEAR      9   0  66 N6        30.23R WCI  -1
RICE LAKE      CLEAR     13   3  64 NW3       30.25R
6HR MIN TEMP:  13; 6HR MAX TEMP:  22;

CHETEK         CLEAR      9   6  87 CALM      30.24R
6HR MIN TEMP:   9; 6HR MAX TEMP:  22;

LADYSMITH      CLEAR     13   5  71 NW5       30.23R WCI   5
6HR MIN TEMP:  12; 6HR MAX TEMP:  21;

EAU CLAIRE     CLEAR     10   7  87 CALM      30.24R FOG
6HR MIN TEMP:   9; 6HR MAX TEMP:  20;

MENOMONIE      CLEAR     14  11  91 NW5       30.25R FOG     WCI   6
6HR MIN TEMP:  13; 6HR MAX TEMP:  20;

NEW RICHMOND   CLEAR      8   3  79 N3        30.26R
6HR MIN TEMP:   8; 6HR MAX TEMP:  22;

OSCEOLA        CLEAR     16   6  65 N5        30.29R WCI   8
6HR MIN TEMP:  16; 6HR MAX TEMP:  23;

$$

WIZ003>005-009-010-017-018-290100-
NORTH CENTRAL WISCONSIN

CITY           SKY/WX    TMP DP  RH WIND       PRES   REMARKS
MANITOWISH WTR PTCLDY     1   0  94 CALM      30.17R
6HR MIN TEMP:   0; 6HR MAX TEMP:  17;

ARBOR VITAE    PTCLDY     9   6  89 N3        30.16R
6HR MIN TEMP:   5; 6HR MAX TEMP:  19;

WOODRUFF       PTCLDY     9   6  89 N3        30.16R
6HR MIN TEMP:   5; 6HR MAX TEMP:  19;

RHINELANDER    PTCLDY     9   5  84 NW5       30.15R WCI   1
6HR MIN TEMP:   9; 6HR MAX TEMP:  18; 6HR PCP: TRACE;

EAGLE RIVER    PTCLDY     7   2  79 N5        30.15R WCI  -1
6HR MIN TEMP:   7; 6HR MAX TEMP:  19;

LAND O LAKES   FLURRIES   9   5  86 NW3       30.15S
6HR MIN TEMP:   9; 6HR MAX TEMP:  20;

PHILLIPS       CLEAR      9   4  81 N5        30.17R WCI   1
6HR MIN TEMP:   7; 6HR MAX TEMP:  19;

TOMAHAWK       FAIR       9   6  86 CALM      30.18R
6HR MIN TEMP:   9; 6HR MAX TEMP:  19;

MEDFORD        CLEAR      8   6  91 NW3       30.17R
6HR MIN TEMP:   6; 6HR MAX TEMP:  17;

MERRILL        PTCLDY    15  10  83 N3        30.18R
6HR MIN TEMP:  15; 6HR MAX TEMP:  21;

$$

WIZ029-030-035-036-043>047-290100-
CENTRAL WISCONSIN

CITY           SKY/WX    TMP DP  RH WIND       PRES   REMARKS
WAUSAU         PTCLDY    15  12  88 W6        30.17R WCI   6
6HR MIN TEMP:  15; 6HR MAX TEMP:  18; 6HR PCP: TRACE;

MOSINEE        CLOUDY    16  14  93 W6        30.19R WCI   7
MARSHFIELD     MOCLDY    16  11  80 NW3       30.19R
6HR MIN TEMP:  16; 6HR MAX TEMP:  19;

STEVENS POINT  FLURRIES  18  14  84 NW5       30.20R WCI  11
6HR MIN TEMP:  18; 6HR MAX TEMP:  20;

WAUPACA        FLURRIES  26  19  74 NW7       30.20R WCI  18
6HR MIN TEMP:  26; 6HR MAX TEMP:  31;

WAUTOMA        MOCLDY    26  19  74 N9        30.20R WCI  17
6HR MIN TEMP:  26; 6HR MAX TEMP:  31;

WISC RAPIDS    CLOUDY    20  13  74 NW7       30.22R WCI  11
6HR MIN TEMP:  20; 6HR MAX TEMP:  25;

CAMP DOUGLAS   CLOUDY    25  25  99 N10       30.21R WCI  15
6HR MIN TEMP:  25; 6HR MAX TEMP:  31;

$$

WIZ011>013-019>022-031-037>040-048>050-290100-
NORTHEAST WISCONSIN

CITY           SKY/WX    TMP DP  RH WIND       PRES   REMARKS
ANTIGO         CLOUDY    16  11  83 N9        30.15R WCI   4
6HR MIN TEMP:  16; 6HR MAX TEMP:  18;

SHAWANO        CLOUDY    24  18  76 W3        30.20R
6HR MIN TEMP:  24; 6HR MAX TEMP:  27;

OCONTO         CLOUDY    23  13  65 NW6       30.20R WCI  16
6HR MIN TEMP:  23; 6HR MAX TEMP:  26;

STURGEON BAY   CLOUDY    25  12  58 NW16      30.19R WCI  12
6HR MIN TEMP:  23; 6HR MAX TEMP:  25;

GREEN BAY      CLOUDY    25  17  72 NW9       30.20R WCI  15
6HR MIN TEMP:  25; 6HR MAX TEMP:  28;

MANITOWOC      CLOUDY    27  22  81 W5        30.19R WCI  22
6HR MIN TEMP:  27; 6HR MAX TEMP:  28;

APPLETON       CLOUDY    27  18  69 NW8       30.19R WCI  18
CLINTONVILLE   FLURRIES  23  18  80 NW6       30.19R WCI  16
OSHKOSH        CLOUDY    28  18  66 NW7       30.18R WCI  21
6HR MIN TEMP:  25; 6HR MAX TEMP:  29;

$$

WIZ032>034-041-042-053>061-290100-
SOUTHWEST WISCONSIN

CITY           SKY/WX    TMP DP  RH WIND       PRES   REMARKS
LA CROSSE      CLOUDY    24  17  74 N10       30.24R WCI  14
6HR MIN TEMP:  22; 6HR MAX TEMP:  29;

SPARTA         CLOUDY    24  17  76 N7        30.24R WCI  16
6HR MIN TEMP:  24; 6HR MAX TEMP:  29;

VIROQUA        CLOUDY    25  20  82 N7        30.18R WCI  17
6HR MIN TEMP:  24; 6HR MAX TEMP:  28;

BOSCOBEL       PTCLDY    24  18  77 CALM      30.21R
6HR MIN TEMP:  24; 6HR MAX TEMP:  33;

PRAIRIE DU CHI CLEAR     26  20  78 CALM      30.20S
6HR MIN TEMP:  26; 6HR MAX TEMP:  32;

PLATTEVILLE    CLEAR     28  16  60 CALM      30.19R
6HR MIN TEMP:  27; 6HR MAX TEMP:  31;

$$

WIZ056-057-062-063-064-067-068-290100-
SOUTH CENTRAL WISCONSIN

CITY           SKY/WX    TMP DP  RH WIND       PRES   REMARKS
REEDSBURG      CLOUDY    28  20  71 NW3       30.19R
6HR MIN TEMP:  27; 6HR MAX TEMP:  30;

BARABOO/DELLS  CLOUDY    28  20  69 NW3       30.18R
6HR MIN TEMP:  27; 6HR MAX TEMP:  31;

LONE ROCK      CLOUDY    32  20  61 CALM      30.20R
6HR MIN TEMP:  31; 6HR MAX TEMP:  35;

MINERAL POINT  CLEAR     28  21  74 CALM      30.17R
MADISON        PTCLDY    24  19  81 NW3       30.18R
6HR MIN TEMP:  24; 6HR MAX TEMP:  32;

MIDDLETON      CLEAR     25  21  83 CALM      30.18R
6HR MIN TEMP:  24; 6HR MAX TEMP:  34;

WATERTOWN      CLEAR     23  19  85 CALM      30.17R
6HR MIN TEMP:  23; 6HR MAX TEMP:  31;

MONROE         CLEAR     27  19  74 NW6       30.16R WCI  20
JANESVILLE     CLEAR     27  18  69 W6        30.18R WCI  20
$$

WIZ051-052-058>065-066-070>072-290100-
SOUTHEAST WISCONSIN

CITY           SKY/WX    TMP DP  RH WIND       PRES   REMARKS
MILWAUKEE      CLEAR     29  17  61 NW3       30.19R
6HR MIN TEMP:  29; 6HR MAX TEMP:  34;

WAUKESHA       CLEAR     23  18  80 NW5       30.18R WCI  17
MILWAUKEE/TIMM CLEAR     27  18  69 NW5       30.19R WCI  21
RACINE         CLEAR     29  18  63 NW3       30.20R
6HR MIN TEMP:  29; 6HR MAX TEMP:  34;

BURLINGTON     CLEAR     23  17  80 CALM      30.18R
6HR MIN TEMP:  22; 6HR MAX TEMP:  32;

KENOSHA        CLEAR     28  19  69 NW3       30.18R
6HR MIN TEMP:  28; 6HR MAX TEMP:  34;

FOND DU LAC    CLOUDY    28  19  69 CALM      30.18R
6HR MIN TEMP:  27; 6HR MAX TEMP:  30;

SHEBOYGAN      CLOUDY    27  19  72 N3        30.18R
6HR MIN TEMP:  25; 6HR MAX TEMP:  30;

WEST BEND      CLEAR     23  19  86 CALM      30.18R
JUNEAU         CLEAR     26  19  76 CALM      30.19R
6HR MIN TEMP:  26; 6HR MAX TEMP:  29;

$$

LSZ147-162-290100-
LAKE SUPERIOR

STATION/POSITION TIME  TEMP    WIND        PRES    WAVE
                       AIR SEA DIR/SP/G            HT/PER
                 (UTC) (F)     (DEG/KT/KT) (MB)    (FT/S)
DEVILS ISLAND    0000   15     300/ 13/ 17 1026.2R
PORT WING        2340   15     300/ 10/ 14 1025.4R
SAXON HARBOR     2300   14     240/  3/  7 1024.4R
$$

LMZ867-665-643>646-290100-
LAKE MICHIGAN

STATION/POSITION TIME  TEMP    WIND        PRES    WAVE



USA.gov is the U.S. government's official web portal to all federal, state and local government web resources and services.